Orbital Elements at Epoch 2459000.5 (2020-May-31.0) TDB
Reference: JPL 21 (heliocentric ecliptic J2000)
Element | Value | Uncertainty (1-sigma) | Units |
e | .1043813009841133 | 5.932e-08 | |
a | 3.013433471761594 | 2.3573e-08 | au |
q | 2.698887365550046 | 1.7611e-07 | au |
i | 1.171597478234699 | 5.6241e-06 | deg |
node | 331.9366114573151 | 0.00025825 | deg |
peri | 39.76167969763689 | 0.00025934 | deg |
M | 125.6917883575448 | 2.4626e-05 | deg |
tp | 2458333.393390690546 (2018-Aug-02.89339069) | 0.00012885 | TDB |
period | 1910.692675230662 5.23 | 2.242e-05 6.138e-08 | d yr |
n | .1884133459382944 | 2.2108e-09 | deg/d |
Q | 3.327979577973143 | 2.6033e-08 | au |
|
| | Orbit Determination Parameters
Additional Information
|